Main page
METAR-TAF:

METAR-TAF

Airports :

AAC Middle Wallop

Middle Wallop, England

latitude: 51-09N, longitude: 001-34W, elevation: 91 m

Current weather observation

The report was made 47 minutes ago, at 02:50 UTC
Wind 7 kt from the Northeast
Temperature 10°C
Humidity 100%
Pressure 1013 hPa
Visibility: 3300 m

METAR: EGVP 230250Z AUTO 04007KT 3300 // OVC002/// 10/10 Q1013

Time: 04:37 (03:37 UTC)


TAF: missing

Weather observations and forecasts of more than 4000 airports (METAR and TAF reports).

The available stations are represented by yellow and red dots on the map.

Hover mouse over dot to see the name of the station.

Then click to see weather observations and forecasts.

To change the map : click on the green buttons with a black cross to zoom in, on the green button with a dash to zoom out, or on the green arrows for adjacent maps.


METAR-TAF: